Regional Weather Roundup
Issued by NWS

Home | Current Version | Previous Version | Graphics & Text | Print | Product List | Glossary On
Versions: 1 2 3 4 5 6 7 8 9 10 11 12 13 14 15 16 17 18 19 20 21 22 23 24 25 26 27
000
ASUS45 KTFX 201110
RWRMT
MONTANA REGIONAL WEATHER ROUNDUP
NATIONAL WEATHER SERVICE GREAT FALLS MT
400 AM MST MON FEB 20 2017

NOTE: "FAIR" INDICATES FEW OR NO CLOUDS BELOW 12000 FEET WITH NO
SIGNIFICANT WEATHER AND/OR OBSTRUCTIONS TO VISIBILITY.

MTZ001>007-043-201200-
WEST OF THE DIVIDE

CITY           SKY/WX    TMP DP  RH WIND       PRES   REMARKS
KALISPELL      CLOUDY    30  28  92 CALM      29.71F
MISSOULA       FOG       30  30 100 E3        29.76S VSB 1/4
BUTTE          CLOUDY    29  19  66 CALM      29.76S
MULLAN PASS    FOG       24  23  96 VRB5      29.63S VSB 3/4
ANACONDA         N/A     30  27  86 SE10      29.75S WCI  21
DEER LODGE       N/A     32  27  80 S12       29.76F WCI  23
EUREKA           N/A     37  28  70 SE13      29.69F WCI  29
HAMILTON         N/A     36  30  80 S12         N/A  WCI  27
LIBBY            N/A     28  28 100 CALM      29.71S
PLAINS           N/A     28  23  81 MISG      29.76F VSB 0
THOMPSON FALLS   N/A     31  29  92 S9        29.79S WCI  23
$$

MTZ008-052>055-201200-
SOUTHWEST MONTANA

CITY           SKY/WX    TMP DP  RH WIND       PRES   REMARKS
BOZEMAN        CLOUDY    30  22  72 NE7       29.79R WCI  23
DILLON         MOCLDY    30  20  66 E3        29.77S
W YELLOWSTONE  CLOUDY    27  27 100 SW8       29.89R WCI  18
ENNIS          MOCLDY    34  21  60 S25G36    29.85R WCI  21
THREE FORKS      N/A     37 -50   2 S14       29.80R WCI  28
$$

MTZ009-010-012-014-046-048-049-054-201200-
EAST SLOPES AND CENTRAL MONTANA

CITY           SKY/WX    TMP DP  RH WIND       PRES   REMARKS
CUT BANK       CLEAR     30  19  63 SW5       29.65S
GREAT FALLS    CLEAR     32  23  69 SW15      29.71S WCI  22
MALMSTROM AFB  CLEAR     31  25  81 SW17      29.71S WCI  19
HELENA         CLEAR     30  25  81 S3        29.75S
AUGUSTA          N/A     29  21  69 SW16      29.69R WCI  18
BOWMANS CRNR     N/A     29  25  85 SW15      29.70S WCI  18
CHOTEAU          N/A     36  18  48 S14       29.70S WCI  27
CONRAD           N/A     29  22  75 S2        29.72S
POWER            N/A     30  24  79 SW15      29.68S WCI  19
RAYNESFORD       N/A     29  22  73 E5        29.72R
ULM              N/A     31  24  74 MISG      29.72S
$$

MTZ011-013-016-021-045-047-050-051-201200-
NORTH CENTRAL MONTANA

CITY           SKY/WX    TMP DP  RH WIND       PRES   REMARKS
HAVRE          CLEAR     33  29  85 SW15      29.68R WCI  23
LEWISTOWN      CLEAR     32  23  69 SW14      29.73R WCI  22
N BAR RANCH      N/A     37  16  41 W14G21    29.73R WCI  29
CHINOOK          N/A     37  30  75 SW6       29.69R
DENTON           N/A     31  24  74 W23       29.69R WCI  18
FORT BENTON      N/A     34  25  69 MISG      29.72R
GEYSER           N/A     29  22  76 SW13      29.70R WCI  19
GRASS RANGE      N/A     34  25  69 SW15      29.69R WCI  24
JUDITH GAP     MOCLDY    32  21  62 SW17      29.72R WCI  21
ROY              N/A     35  26  71 MISG      29.69R
STANFORD         N/A     32  23  68 W15       29.71R WCI  22
WINIFRED         N/A     32  25  75 SW8       29.71R WCI  25
$$

MTZ017>020-022>027-061-062-201200-
NORTHEAST MONTANA

CITY           SKY/WX    TMP DP  RH WIND       PRES   REMARKS
GLASGOW        CLOUDY    28  26  92 NW7       29.68R WCI  21
JORDAN           N/A     37  32  82 SW7       29.70R WCI  32
SIDNEY         CLOUDY    31  30  96 SW5       29.68R FOG
WOLF POINT     FOG       31  29  92 SW5       29.70R VSB 1/2
PLENTYWOOD       N/A     30  30 100 CALM      29.65R
POPLAR           N/A     30  28  93 CALM      29.69R VSB 1/4
SCOBEY           N/A     28  23  81 CALM      29.65R
$$

MTZ028>42-056>058-201200-
SOUTHCENTRAL AND SOUTHEAST MONTANA

CITY           SKY/WX    TMP DP  RH WIND       PRES   REMARKS
BAKER          CLOUDY    38  34  85 W10       29.71R WCI  31
BILLINGS       CLEAR     35  27  72 W14       29.76R WCI  26
LIVINGSTON     MOCLDY    38  22  52 SW24G35   29.76R WCI  27
MILES CITY     CLOUDY    39  33  79 S5        29.72R
BIG TIMBER     MOCLDY    36  21  55 W13       29.80R WCI  27
EKALAKA          N/A     39  34  82 SW10      29.73R
FORSYTH          N/A     43  28  56 SW9       29.73R
HARLOWTON        N/A     31  22  70 W12       29.75R WCI  22
LAUREL           N/A     33  22  64 SW5       29.77R
$$

REGIONAL REPORTS...DAKOTAS

CITY           SKY/WX    TMP DP  RH WIND       PRES   REMARKS
WILLISTON      CLOUDY    33  32  96 W6        29.66R WCI  28
MINOT          CLOUDY    35  32  88 NW9       29.61R WCI  28
DICKINSON      CLOUDY    36  33  89 NW13      29.62R WCI  27
BEACH            N/A    N/A N/A N/A MISG        N/A
CROSBY           N/A     32  32 100 W3        29.65R FOG
TIOGA          CLOUDY    32  32 100 W10       29.64R FOG     WCI  24
WATFORD CITY     N/A     32  32 100 W9        29.66R WCI  24
BISMARCK       LGT RAIN  38  35  89 NW12      29.58R WCI  30
GRAND FORKS    CLOUDY    39  36  89 SE8       29.55F FOG
FARGO          CLOUDY    52  49  89 SE13      29.58F
BUFFALO SD       N/A     48  33  56 NW23      29.62R
RAPID CITY     CLOUDY    48  35  60 NW26G38   29.69R
$$

REGIONAL REPORTS...WYOMING/IDAHO/WASHINGTON

CITY           SKY/WX    TMP DP  RH WIND       PRES   REMARKS
GILLETTE       CLEAR     36  34  92 W13       29.78R WCI  27
SHERIDAN       CLEAR     31  23  72 SW12      29.79R WCI  22
BUFFALO WY     CLEAR     35  27  72 S6        29.81R WCI  30
CODY           CLEAR     39  16  39 W8        29.85R
YELLOWSTONE LA   N/A     23  20  88 VRB3      29.89S
IDAHO FALLS    CLOUDY    30  29  96 N3        29.90R
SALMON         CLOUDY    34  30  86 E6        29.78F WCI  29
BOISE          CLOUDY    46  35  65 SE15      29.75F
SPOKANE        CLOUDY    34  31  88 SE7       29.65F WCI  28
$$

REGIONAL REPORTS...ALBERTA

CITY           SKY/WX    TMP DP  RH WIND       PRES   REMARKS
EDMONTON       CLOUDY    32  28  86 NW6       29.57S WCI  26
CALGARY        CLEAR     25  23  93 SW6       29.54S FOG     WCI  18
LETHBRIDGE     CLEAR     25  23  93 SW10      29.61R WCI  15
MEDICINE HAT   CLOUDY    30  27  86 SW5       29.62R
CARDSTON         N/A     30  18  59 S6          N/A  WCI  24
MILK RIVER       N/A     30  23  74 SW10        N/A  WCI  21
ONEFOUR          N/A     34  23  64 W12         N/A  WCI  25
$$

REGIONAL REPORTS...SASKATCHEWAN

CITY           SKY/WX    TMP DP  RH WIND       PRES   REMARKS
SWIFT CURRENT  CLEAR     30  28  93 SW12      29.59R WCI  21
REGINA         FOG       30  30 100 SW6       29.61R VSB 1/4 WCI  24
SASKATOON      FOG       32  30  93 SW10      29.58R VSB 1/8 WCI  24
CYPRESS HILLS    N/A     30  21  69 W9          N/A  WCI  22
VAL MARIE        N/A     25  23  93 SW2         N/A
ROCKGLEN         N/A     32  30  93 W9          N/A  WCI  24
ASSINIBOIA       N/A     34  32  93 NW8         N/A  WCI  27
$$




USA.gov is the U.S. government's official web portal to all federal, state and local government web resources and services.